KINEIS-2E

Last updated on Thu Oct 23 2025 00:02:50 GMT+0000 (Coordinated Universal Time)

1 62931U 25028D 25295.37461806 .00002503 00000+0 37007-3 0 9995 2 62931 97.9294 346.7779 0001210 124.3876 235.7448 14.76087780 37686
UTC large
Height (km)
Speed (km/s)
/
Latitude / Longitude
Inclination (degrees)
Orbital Period (minutes)
Azimuth
Elevation
Range (km)
Doppler Factor

Next 0 passes for location: London (51.5072 / 0.1276)

Sorry there are no passes over London.